GLOBALSTAR M001 1 25162U 98008A 23340.67554646 -.00000048 00000-0 37578-3 0 9992 2 25162 52.0004 158.7613 0002547 127.9653 355.4779 12.38174816174521 GLOBALSTAR M004 1 25163U 98008B 23341.16108137 -.00000080 00000-0 13272-3 0 9999 2 25163 52.0012 316.4906 0003139 123.7135 316.7980 12.63343747191258 GLOBALSTAR M002 1 25164U 98008C 23340.99430256 -.00000066 00000-0 19813-3 0 9991 2 25164 51.9988 199.7651 0001240 140.4073 219.6838 11.61497864119278 GLOBALSTAR M003 1 25165U 98008D 23340.25261522 .00000036 00000-0 13416-2 0 9997 2 25165 51.9798 276.6335 0007369 249.5338 258.7947 12.11958684165448 GLOBALSTAR M014 1 25306U 98023A 23340.64033097 -.00000054 00000-0 44846-3 0 9991 2 25306 51.9810 135.6150 0001810 84.4439 42.3974 11.65462839126042 GLOBALSTAR M006 1 25307U 98023B 23340.74627748 -.00000053 00000-0 46394-3 0 9994 2 25307 51.9900 166.9506 0003850 163.7209 326.9889 11.58157655152120 GLOBALSTAR M015 1 25308U 98023C 23341.19465317 -.00000082 00000-0 -19661-3 0 9997 2 25308 51.9813 238.7384 0012211 157.1603 12.7508 11.48858022130323 GLOBALSTAR M008 1 25309U 98023D 23340.56399001 -.00000080 00000-0 12362-3 0 9992 2 25309 51.9994 17.5920 0002761 82.8878 82.5345 12.36032780169071 GLOBALSTAR M023 1 25621U 99004A 23341.12511770 -.00000141 00000-0 -20766-3 0 9997 2 25621 52.0130 312.6618 0010020 334.6603 105.8559 12.62446699145332 GLOBALSTAR M040 1 25622U 99004B 23340.95441303 -.00000075 00000-0 16037-3 0 9993 2 25622 51.9936 316.5213 0000270 282.0921 113.6841 12.61961899144775 GLOBALSTAR M036 1 25623U 99004C 23340.96734017 -.00000129 00000-0 -67164-3 0 9990 2 25623 51.9973 271.6079 0012062 63.1644 14.4606 11.86559613112719 GLOBALSTAR M038 1 25624U 99004D 23341.17500376 -.00000083 00000-0 97510-4 0 9991 2 25624 51.9966 238.5278 0002025 1.6041 181.8776 12.32489082133524 GLOBALSTAR M022 1 25649U 99012A 23340.99040541 -.00000029 00000-0 69127-3 0 9991 2 25649 52.0069 8.3000 0002873 144.0534 295.8681 12.02473399109304 GLOBALSTAR M041 1 25650U 99012B 23340.91748119 -.00000070 00000-0 19750-3 0 9994 2 25650 52.0009 232.9310 0001591 325.0491 35.0241 11.96650926111447 GLOBALSTAR M046 1 25651U 99012C 23341.14418628 .00000038 00000-0 14009-2 0 9994 2 25651 52.0076 338.3840 0001962 217.3587 220.5409 12.09379552116497 GLOBALSTAR M037 1 25652U 99012D 23340.52612264 -.00000045 00000-0 32696-3 0 9990 2 25652 52.0009 85.3170 0002086 52.2731 30.2604 12.62391204140716 GLOBALSTAR M045 1 25676U 99019A 23340.54646736 -.00000078 00000-0 14134-3 0 9999 2 25676 51.9966 97.4590 0001338 147.5092 294.9552 12.27020751124810 GLOBALSTAR M019 1 25677U 99019B 23340.99640438 .00000064 00000-0 16043-2 0 9996 2 25677 51.9850 187.2806 0000395 50.9492 97.5789 12.13848923117549 GLOBALSTAR M044 1 25678U 99019C 23340.56320434 -.00000104 00000-0 -28350-3 0 9993 2 25678 51.9981 69.9565 0006474 49.0674 56.8866 11.90226713104808 GLOBALSTAR M042 1 25679U 99019D 23340.77680888 -.00000081 00000-0 10148-3 0 9998 2 25679 51.9986 187.3175 0002165 209.8174 276.3342 12.22052876116983 GLOBALSTAR M025 1 25770U 99031A 23340.99055132 -.00000057 00000-0 33551-3 0 9992 2 25770 51.9850 12.3643 0001038 286.0634 136.1678 11.22548096 76688 GLOBALSTAR M049 1 25771U 99031B 23340.91046821 .00000005 00000-0 24345-2 0 9992 2 25771 51.9910 19.2562 0003336 155.4387 204.6568 11.12101078 55319 GLOBALSTAR M047 1 25772U 99031C 23340.51272726 -.00000071 00000-0 -29603-4 0 9993 2 25772 51.9847 70.4982 0016156 26.2932 333.8691 11.31917150407847 GLOBALSTAR M052 1 25773U 99031D 23340.85786123 -.00000084 00000-0 -59435-3 0 9991 2 25773 51.9849 135.8977 0001795 357.3386 173.7411 11.15047404416225 GLOBALSTAR M035 1 25851U 99037A 23339.73988163 -.00000068 00000-0 -15495-3 0 9997 2 25851 51.9933 222.5692 0013762 149.6101 243.8112 11.04527662 34442 GLOBALSTAR M032 1 25852U 99037B 23340.52125568 -.00000054 00000-0 42311-3 0 9990 2 25852 51.9954 84.5688 0007592 306.0288 53.9808 11.19046424 72291 GLOBALSTAR M051 1 25853U 99037C 23340.89638362 -.00000050 00000-0 53984-3 0 9996 2 25853 51.9817 307.6850 0001578 311.5030 48.5645 11.42193327 68592 GLOBALSTAR M030 1 25854U 99037D 23340.84474915 -.00000053 00000-0 46885-3 0 9999 2 25854 51.9842 149.4121 0005728 116.2034 243.9372 11.55084408 85522 GLOBALSTAR M048 1 25872U 99041A 23340.91907329 -.00000068 00000-0 43913-4 0 9998 2 25872 51.9351 221.0753 0012487 302.9171 191.0663 11.33841844 61656 GLOBALSTAR M026 1 25873U 99041B 23340.60107056 .00000010 00000-0 27208-2 0 9997 2 25873 52.0041 344.4972 0001674 45.4862 117.0785 11.06832528 86637 GLOBALSTAR M043 1 25874U 99041C 23340.30788495 -.00000085 00000-0 -49047-3 0 9997 2 25874 51.9421 307.8958 0013530 78.4503 70.7235 11.25675471 59938 GLOBALSTAR M028 1 25875U 99041D 23341.19404919 -.00000075 00000-0 15986-3 0 9995 2 25875 51.9640 56.8461 0062890 299.6829 59.7780 12.50545585120395 GLOBALSTAR M024 1 25883U 99043A 23340.95916803 -.00000091 00000-0 -93995-3 0 9994 2 25883 51.9991 200.1641 0000219 299.4845 168.4073 11.10158851 52860 GLOBALSTAR M027 1 25884U 99043B 23340.21851733 -.00000042 00000-0 81103-3 0 9997 2 25884 52.0275 263.9835 0020668 166.7166 193.4175 11.04365907 79485 GLOBALSTAR M054 1 25885U 99043C 23340.45980903 -.00000054 00000-0 43288-3 0 9991 2 25885 52.0114 124.5023 0003416 290.0993 103.5220 11.39202796 55379 GLOBALSTAR M053 1 25886U 99043D 23340.55958767 -.00000073 00000-0 -13016-3 0 9994 2 25886 52.0014 40.3709 0003573 206.3937 302.2059 11.27652370 56561 GLOBALSTAR M058 1 25907U 99049A 23340.72093753 -.00000057 00000-0 37373-3 0 9991 2 25907 51.9907 160.3873 0001389 275.3813 84.6863 11.93171108474871 GLOBALSTAR M050 1 25908U 99049B 23340.94390197 -.00000058 00000-0 33832-3 0 9995 2 25908 51.9970 209.1740 0009365 6.7245 100.3615 12.07423795 80753 GLOBALSTAR M033 1 25909U 99049C 23340.80369598 -.00000088 00000-0 32367-4 0 9998 2 25909 51.9896 119.9566 0011570 199.6391 160.4012 12.20260058467573 GLOBALSTAR M055 1 25910U 99049D 23340.71427993 -.00000071 00000-0 20143-3 0 9994 2 25910 51.9987 158.1339 0007935 58.2952 301.8672 12.29391867 99590 GLOBALSTAR M057 1 25943U 99058A 23340.83362267 -.00000060 00000-0 30052-3 0 9993 2 25943 51.9961 132.7316 0001384 313.2134 46.8600 12.24780404 98511 GLOBALSTAR M059 1 25944U 99058B 23340.92436556 -.00000052 00000-0 42618-3 0 9999 2 25944 52.0028 277.4218 0000865 18.9321 90.6972 11.99957248507029 GLOBALSTAR M056 1 25945U 99058C 23340.89606198 -.00000088 00000-0 -10206-4 0 9996 2 25945 51.9979 293.8006 0000860 117.4091 276.4596 12.04774592 95332 GLOBALSTAR M031 1 25946U 99058D 23340.96995472 -.00000084 00000-0 69797-4 0 9995 2 25946 51.9946 219.3202 0002345 102.3854 0.1132 12.16000055 96639 GLOBALSTAR M039 1 25961U 99062A 23340.69614283 -.00000069 00000-0 19603-3 0 9998 2 25961 51.9818 169.6960 0002846 165.7037 194.3910 12.62276308109681 GLOBALSTAR M034 1 25962U 99062B 23340.56452394 -.00000023 00000-0 91498-3 0 9990 2 25962 51.9904 23.4482 0014200 68.4468 99.8737 11.79419190 72475 GLOBALSTAR M029 1 25963U 99062C 23340.73296260 -.00000059 00000-0 33405-3 0 9991 2 25963 51.9768 166.4518 0003863 99.2945 30.2540 11.99871644102087 GLOBALSTAR M061 1 25964U 99062D 23340.99578472 -.00000047 00000-0 54702-3 0 9998 2 25964 51.9765 198.9676 0006306 7.3734 140.4032 11.76755454 55757 GLOBALSTAR M063 1 26081U 00008A 23340.62119043 -.00000055 00000-0 40063-3 0 9990 2 26081 51.9922 142.6032 0003755 337.6272 42.8753 11.86148638 91358 GLOBALSTAR M062 1 26082U 00008B 23340.31696344 -.00000074 00000-0 17359-3 0 9994 2 26082 51.9863 299.1907 0007468 2.7142 144.7678 12.43422457427093 GLOBALSTAR M060 1 26083U 00008C 23340.96750914 .00000011 00000-0 10128-2 0 9996 2 26083 51.9986 178.3155 0004751 74.4826 74.0465 12.17621008 84362 GLOBALSTAR M064 1 26084U 00008D 23341.13819701 -.00000080 00000-0 49925-4 0 9993 2 26084 52.0027 246.6533 0002479 62.3619 297.7465 11.88513170100855 GLOBALSTAR M065 1 31571U 07020A 23340.44964089 -.00000054 00000-0 27880-3 0 9990 2 31571 51.9874 126.8064 0010581 147.4691 247.2589 12.61960101762860 GLOBALSTAR M069 1 31573U 07020C 23340.50049594 -.00000090 00000-0 77741-4 0 9996 2 31573 51.9954 82.7280 0000899 137.0860 304.2407 12.62261681763991 GLOBALSTAR M072 1 31574U 07020D 23340.74377737 -.00000085 00000-0 10230-3 0 9999 2 31574 52.0059 177.7563 0001666 91.5984 33.7614 12.62269405762291 GLOBALSTAR M071 1 31576U 07020F 23340.53818979 -.00000081 00000-0 12665-3 0 9996 2 31576 52.0070 87.6284 0000639 111.7821 20.1452 12.62273725425183 GLOBALSTAR M067 1 32263U 07048A 23341.21028887 -.00000079 00000-0 13885-3 0 9999 2 32263 51.9715 228.5660 0000338 113.4117 65.3638 12.40635108740470 GLOBALSTAR M070 1 32264U 07048B 23340.98328806 -.00000086 00000-0 98259-4 0 9994 2 32264 51.9773 28.9652 0000093 26.7636 38.2660 12.62282841744157 GLOBALSTAR M066 1 32265U 07048C 23341.20067263 -.00000083 00000-0 11470-3 0 9994 2 32265 51.9675 250.3448 0001589 70.1895 94.6526 12.62277609746407 GLOBALSTAR M068 1 32266U 07048D 23341.08359838 -.00000032 00000-0 39819-3 0 9994 2 32266 51.9865 203.4689 0001413 43.4833 123.1646 12.62774056747338 GLOBALSTAR M079 1 37188U 10054A 23340.92733978 -.00000100 00000-0 21800-4 0 9994 2 37188 52.0056 39.2178 0000610 129.6507 280.8633 12.62270404605957 GLOBALSTAR M074 1 37189U 10054B 23341.18398188 -.00000098 00000-0 34914-4 0 9990 2 37189 52.0038 37.8454 0000402 117.4175 260.4280 12.62263063606668 GLOBALSTAR M076 1 37190U 10054C 23340.60949385 -.00000096 00000-0 44755-4 0 9991 2 37190 52.0052 39.7165 0000757 172.0813 352.4089 12.62264157606232 GLOBALSTAR M077 1 37191U 10054D 23341.21077140 -.00000093 00000-0 61365-4 0 9994 2 37191 52.0092 354.5830 0000199 62.8832 14.6997 12.62267166607421 GLOBALSTAR M075 1 37192U 10054E 23341.22230470 -.00000101 00000-0 13575-4 0 9993 2 37192 51.9955 80.4185 0000860 115.4060 254.1772 12.62267994605912 GLOBALSTAR M073 1 37193U 10054F 23341.23745068 -.00000086 00000-0 10029-3 0 9991 2 37193 52.0081 353.7648 0000237 88.5150 351.8756 12.62270114607426 GLOBALSTAR M083 1 37739U 11033A 23340.31903882 -.00000079 00000-0 13681-3 0 9992 2 37739 51.9875 306.0549 0000756 58.4614 107.1765 12.62263506576276 GLOBALSTAR M088 1 37740U 11033B 23340.83819097 -.00000086 00000-0 10048-3 0 9997 2 37740 51.9718 210.4362 0001290 80.9074 44.9089 12.62268423571881 GLOBALSTAR M091 1 37741U 11033C 23340.93554024 -.00000078 00000-0 14201-3 0 9991 2 37741 51.9971 172.6963 0001424 92.1231 55.4651 12.62269404572689 GLOBALSTAR M085 1 37742U 11033D 23340.60079747 -.00000087 00000-0 93760-4 0 9998 2 37742 51.9849 125.2460 0001226 106.7853 19.1800 12.62265721573156 GLOBALSTAR M081 1 37743U 11033E 23340.87336955 -.00000090 00000-0 75186-4 0 9991 2 37743 51.9940 126.8586 0001285 112.3926 52.8884 12.62267602573330 GLOBALSTAR M089 1 37744U 11033F 23340.58320265 -.00000105 00000-0 -41773-5 0 9991 2 37744 51.9935 82.0737 0000684 138.2193 328.1228 12.62269869574149 GLOBALSTAR M084 1 38040U 11080A 23341.14599500 -.00000081 00000-0 12984-3 0 9998 2 38040 52.0027 307.3559 0000281 27.0555 56.7362 12.62268766552478 GLOBALSTAR M080 1 38041U 11080B 23340.94663080 -.00000090 00000-0 76798-4 0 9995 2 38041 52.0080 309.3738 0000080 40.8796 336.4510 12.62267053552297 GLOBALSTAR M082 1 38042U 11080C 23340.19623086 -.00000102 00000-0 91817-5 0 9999 2 38042 52.0079 267.0438 0001349 51.5917 95.4787 12.62268511552902 GLOBALSTAR M092 1 38043U 11080D 23341.01232719 -.00000101 00000-0 15777-4 0 9990 2 38043 52.0112 354.9056 0000115 314.8818 62.4144 12.62247496551671 GLOBALSTAR M090 1 38044U 11080E 23340.92781385 -.00000095 00000-0 49080-4 0 9994 2 38044 51.9888 259.3443 0001082 60.7376 52.9521 12.62264313553119 GLOBALSTAR M086 1 38045U 11080F 23341.19932519 -.00000091 00000-0 68899-4 0 9997 2 38045 51.9901 259.0264 0001138 115.5242 31.5929 12.62265322553191 GLOBALSTAR M097 1 39072U 13005A 23340.71820756 -.00000081 00000-0 12767-3 0 9994 2 39072 52.0019 174.4698 0001394 91.2202 268.8824 12.62273411500284 GLOBALSTAR M093 1 39073U 13005B 23340.69170996 -.00000083 00000-0 11545-3 0 9991 2 39073 51.9782 168.7467 0001572 99.0073 261.0971 12.62278128500233 GLOBALSTAR M094 1 39074U 13005C 23340.45426484 -.00000097 00000-0 38518-4 0 9997 2 39074 51.9963 83.2917 0000951 119.5351 240.5610 12.62270174501813 GLOBALSTAR M096 1 39075U 13005D 23340.62593233 -.00000084 00000-0 11143-3 0 9994 2 39075 52.0052 130.8485 0001354 106.7513 253.3502 12.62266851500751 GLOBALSTAR M078 1 39076U 13005E 23341.07449484 -.00000127 00000-0 -13161-3 0 9994 2 39076 51.9864 214.7532 0001696 49.0763 311.0250 12.62264231499648 GLOBALSTAR M095 1 39077U 13005F 23340.94252749 -.00000080 00000-0 13126-3 0 9994 2 39077 51.9783 212.6296 0001693 69.4828 290.6220 12.62271694499277